When you browse on this site, cookies collect data to enhance your experience and personalize the content and advertising you see.
Visit our Privacy Policy to learn more. By continuing to use the site, you agree to this use of cookies and data.
  • en Suisse
  • Liste des pays
  • À 7 jours
  • Température de l'eau
  • Carte météo
  • Widgets météo
  • user-avatar
    Se connecter

    Météo par heure à Efimovka

    Ce jour, 5 Juin, Vendredi

    Heure Température Précipitation Vent Pression Humidité
    00:00 +10°C° 0 mm 4 m/s 742 mmHg 94%
    01:00 +10°C° 0 mm 4 m/s 742 mmHg 94%
    02:00 +10°C° 0 mm 3 m/s 742 mmHg 95%
    03:00 +10°C° 0 mm 3 m/s 742 mmHg 94%
    04:00 +11°C° 0 mm 4 m/s 742 mmHg 93%
    05:00 +11°C° 0 mm 4 m/s 742 mmHg 92%
    06:00 +13°C° 0 mm 5 m/s 742 mmHg 88%
    07:00 +14°C° 0 mm 5 m/s 742 mmHg 84%
    08:00 +15°C° 0 mm 6 m/s 742 mmHg 80%
    09:00 +16°C° 1 mm 6 m/s 742 mmHg 80%
    10:00 +16°C° 1 mm 7 m/s 742 mmHg 80%
    11:00 +17°C° 1 mm 8 m/s 742 mmHg 80%
    12:00 +16°C° 1.8 mm 7 m/s 742 mmHg 84%
    13:00 +14°C° 1.8 mm 7 m/s 742 mmHg 89%
    14:00 +12°C° 1.8 mm 7 m/s 742 mmHg 93%
    15:00 +14°C° 0.5 mm 6 m/s 742 mmHg 91%
    16:00 +14°C° 0.5 mm 6 m/s 742 mmHg 88%
    17:00 +15°C° 0.5 mm 5 m/s 742 mmHg 86%
    18:00 +14°C° 0.7 mm 4 m/s 742 mmHg 89%
    19:00 +13°C° 0.7 mm 4 m/s 742 mmHg 91%
    20:00 +12°C° 0.7 mm 3 m/s 742 mmHg 94%
    21:00 +12°C° 0 mm 3 m/s 743 mmHg 95%
    22:00 +11°C° 0 mm 3 m/s 743 mmHg 95%
    23:00 +11°C° 0 mm 3 m/s 743 mmHg 96%

    Demain, 6 Juin, Samedi

    Heure Température Précipitation Vent Pression Humidité
    00:00 +12°C° 0 mm 2 m/s 743 mmHg 97%
    01:00 +12°C° 0 mm 2 m/s 744 mmHg 97%
    02:00 +12°C° 0 mm 2 m/s 744 mmHg 97%
    03:00 +12°C° 0 mm 2 m/s 744 mmHg 97%
    04:00 +13°C° 0 mm 2 m/s 744 mmHg 97%
    05:00 +14°C° 0 mm 2 m/s 744 mmHg 97%
    06:00 +15°C° 0 mm 2 m/s 744 mmHg 95%
    07:00 +17°C° 0 mm 2 m/s 745 mmHg 92%
    08:00 +18°C° 0 mm 3 m/s 745 mmHg 89%
    09:00 +20°C° 0 mm 3 m/s 745 mmHg 85%
    10:00 +21°C° 0 mm 3 m/s 745 mmHg 80%
    11:00 +22°C° 0 mm 3 m/s 745 mmHg 76%
    12:00 +24°C° 0.3 mm 3 m/s 745 mmHg 76%
    13:00 +24°C° 0.3 mm 3 m/s 745 mmHg 75%
    14:00 +25°C° 0.3 mm 4 m/s 745 mmHg 75%
    15:00 +25°C° 0.7 mm 3 m/s 745 mmHg 78%
    16:00 +24°C° 0.7 mm 3 m/s 745 mmHg 82%
    17:00 +24°C° 0.7 mm 3 m/s 745 mmHg 85%
    18:00 +22°C° 0.3 mm 3 m/s 745 mmHg 87%
    19:00 +21°C° 0.3 mm 3 m/s 746 mmHg 89%
    20:00 +19°C° 0.3 mm 3 m/s 746 mmHg 92%
    21:00 +19°C° 0 mm 3 m/s 746 mmHg 92%
    22:00 +18°C° 0 mm 2 m/s 746 mmHg 93%
    23:00 +18°C° 0 mm 2 m/s 746 mmHg 94%

    Après-demain, 7 Juin, Dimanche

    Heure Température Précipitation Vent Pression Humidité
    00:00 +18°C° 0 mm 2 m/s 747 mmHg 94%
    01:00 +18°C° 0 mm 2 m/s 747 mmHg 94%
    02:00 +17°C° 0 mm 2 m/s 747 mmHg 94%
    03:00 +18°C° 0 mm 2 m/s 748 mmHg 94%
    04:00 +19°C° 0 mm 1 m/s 748 mmHg 94%
    05:00 +19°C° 0 mm 1 m/s 748 mmHg 95%
    06:00 +21°C° 0 mm 1 m/s 748 mmHg 90%
    07:00 +22°C° 0 mm 1 m/s 748 mmHg 86%
    08:00 +23°C° 0 mm 1 m/s 749 mmHg 82%
    09:00 +24°C° 1.5 mm 1 m/s 749 mmHg 79%
    10:00 +25°C° 1.5 mm 2 m/s 749 mmHg 75%
    11:00 +26°C° 1.5 mm 2 m/s 749 mmHg 72%
    12:00 +27°C° 1.4 mm 2 m/s 749 mmHg 70%
    13:00 +27°C° 1.4 mm 1 m/s 748 mmHg 68%
    14:00 +27°C° 1.4 mm 1 m/s 748 mmHg 65%
    15:00 +27°C° 0.8 mm 1 m/s 748 mmHg 69%
    16:00 +27°C° 0.8 mm 1 m/s 748 mmHg 72%
    17:00 +27°C° 0.8 mm 1 m/s 748 mmHg 75%
    18:00 +25°C° 0.1 mm 1 m/s 748 mmHg 80%
    19:00 +23°C° 0.1 mm 1 m/s 748 mmHg 84%
    20:00 +22°C° 0.1 mm 1 m/s 748 mmHg 88%
    21:00 +21°C° 0 mm 1 m/s 748 mmHg 90%
    22:00 +20°C° 0 mm 1 m/s 749 mmHg 91%
    23:00 +19°C° 0 mm 2 m/s 749 mmHg 92%

    8 Juin, Lundi

    Heure Température Précipitation Vent Pression Humidité
    00:00 +19°C° 0 mm 2 m/s 749 mmHg 93%
    01:00 +18°C° 0 mm 2 m/s 749 mmHg 93%
    02:00 +18°C° 0 mm 2 m/s 749 mmHg 93%
    03:00 +18°C° 0 mm 2 m/s 749 mmHg 93%
    04:00 +20°C° 0 mm 1 m/s 749 mmHg 93%
    05:00 +20°C° 0 mm 1 m/s 749 mmHg 93%
    06:00 +22°C° 0 mm 1 m/s 749 mmHg 89%
    07:00 +23°C° 0 mm 1 m/s 749 mmHg 84%
    08:00 +24°C° 0 mm 1 m/s 749 mmHg 80%
    09:00 +25°C° 1.5 mm 2 m/s 749 mmHg 77%
    10:00 +26°C° 1.5 mm 2 m/s 749 mmHg 74%
    11:00 +27°C° 1.5 mm 2 m/s 749 mmHg 71%
    12:00 +27°C° 0.8 mm 3 m/s 749 mmHg 71%
    13:00 +27°C° 0.8 mm 3 m/s 749 mmHg 70%
    14:00 +27°C° 0.8 mm 4 m/s 749 mmHg 70%
    15:00 +27°C° 0.5 mm 4 m/s 748 mmHg 74%
    16:00 +26°C° 0.5 mm 4 m/s 748 mmHg 78%
    17:00 +26°C° 0.5 mm 4 m/s 748 mmHg 82%
    18:00 +23°C° 0.4 mm 4 m/s 748 mmHg 85%
    19:00 +22°C° 0.4 mm 4 m/s 749 mmHg 88%
    20:00 +20°C° 0.4 mm 4 m/s 749 mmHg 91%
    21:00 +20°C° 0 mm 3 m/s 749 mmHg 92%
    22:00 +19°C° 0 mm 3 m/s 749 mmHg 93%
    23:00 +18°C° 0 mm 3 m/s 749 mmHg 94%

    9 Juin, Mardi

    Heure Température Précipitation Vent Pression Humidité
    00:00 +18°C° 0 mm 3 m/s 749 mmHg 94%
    01:00 +17°C° 0 mm 3 m/s 749 mmHg 95%
    02:00 +17°C° 0 mm 2 m/s 749 mmHg 95%
    03:00 +17°C° 0 mm 3 m/s 749 mmHg 95%
    04:00 +18°C° 0 mm 3 m/s 750 mmHg 94%
    05:00 +18°C° 0 mm 3 m/s 750 mmHg 94%
    06:00 +19°C° 0 mm 3 m/s 750 mmHg 90%
    07:00 +20°C° 0 mm 4 m/s 750 mmHg 87%
    08:00 +22°C° 0 mm 4 m/s 750 mmHg 83%
    09:00 +23°C° 0 mm 4 m/s 750 mmHg 80%
    10:00 +23°C° 0 mm 5 m/s 750 mmHg 76%
    11:00 +25°C° 0 mm 5 m/s 750 mmHg 73%
    12:00 +25°C° 0.1 mm 5 m/s 750 mmHg 73%
    13:00 +25°C° 0.1 mm 5 m/s 750 mmHg 73%
    14:00 +25°C° 0.1 mm 5 m/s 750 mmHg 73%
    15:00 +25°C° 0.3 mm 5 m/s 749 mmHg 75%
    16:00 +25°C° 0.3 mm 4 m/s 749 mmHg 78%
    17:00 +23°C° 0.3 mm 4 m/s 749 mmHg 81%
    18:00 +22°C° 0 mm 4 m/s 749 mmHg 84%
    19:00 +20°C° 0 mm 3 m/s 749 mmHg 87%
    20:00 +19°C° 0 mm 3 m/s 749 mmHg 90%
    21:00 +18°C° 0 mm 3 m/s 749 mmHg 91%
    22:00 +17°C° 0 mm 3 m/s 749 mmHg 93%
    23:00 +17°C° 0 mm 3 m/s 749 mmHg 94%

    10 Juin, Mercredi

    Heure Température Précipitation Vent Pression Humidité
    00:00 +15°C° 0 mm 4 m/s 749 mmHg 94%
    01:00 +15°C° 0 mm 4 m/s 749 mmHg 94%
    02:00 +15°C° 0 mm 4 m/s 749 mmHg 95%
    03:00 +15°C° 0 mm 4 m/s 749 mmHg 94%
    04:00 +17°C° 0 mm 4 m/s 749 mmHg 94%
    05:00 +16°C° 0 mm 5 m/s 749 mmHg 94%
    06:00 +17°C° 0 mm 5 m/s 749 mmHg 90%
    07:00 +20°C° 0 mm 5 m/s 749 mmHg 87%
    08:00 +21°C° 0 mm 5 m/s 749 mmHg 84%
    09:00 +22°C° 0 mm 5 m/s 749 mmHg 80%
    10:00 +23°C° 0 mm 5 m/s 749 mmHg 75%
    11:00 +25°C° 0 mm 5 m/s 749 mmHg 71%
    12:00 +26°C° 0 mm 5 m/s 749 mmHg 71%
    13:00 +26°C° 0 mm 5 m/s 749 mmHg 71%
    14:00 +26°C° 0 mm 5 m/s 748 mmHg 71%
    15:00 +25°C° 0.1 mm 5 m/s 748 mmHg 74%
    16:00 +25°C° 0.1 mm 4 m/s 748 mmHg 77%
    17:00 +24°C° 0.1 mm 3 m/s 748 mmHg 79%
    18:00 +22°C° 0.2 mm 3 m/s 748 mmHg 83%
    19:00 +21°C° 0.2 mm 2 m/s 748 mmHg 87%
    20:00 +21°C° 0.2 mm 1 m/s 748 mmHg 91%
    21:00 +20°C° 0.3 mm 1 m/s 748 mmHg 92%
    22:00 +20°C° 0.3 mm 1 m/s 748 mmHg 93%
    23:00 +19°C° 0.3 mm 1 m/s 748 mmHg 93%
    Voir plus